Location: Brno
(49.2000°N, 16.6333°E)
Time: 12:23:46
(UTC+02:00)

ISS - Pass Details

Date: 28 January 2019
Orbit: 411 x 421 km, 51.6° (Epoch: 16 October)

Event Time Altitude Azimuth Distance (km) Brightness Sun altitude
Rises 19:06:26 0° 272° (W) 2,372 1.5 -23.3°
Reaches altitude 10° 19:08:34 10° 277° (W) 1,509 0.1 -23.7°
Enters shadow 19:10:53 37° 299° (WNW) 672 -2.3 -24.1°
